Date String (YYYY-MM-DD hh:mm:ss) UTC,Instrument flags,absolute air pressure of the measurement (hPa),sample flow rate (lpm),inlet stack bypass flow (lpm),air temperature of the measurement (°C),ambient temperature measured by the external sensor (°C),aerosol sample conditioner tube jacket temperature (°C),OPC LED temperature (°C),internal box temperature (°C),relative humidity of the measurement (%),span deviation,mass concentration of particles derived from Lorenz-Mie calculation of OPC scattering (μg/m³),mass concentration of particles derived from Lorenz-Mie calculation of OPC scattering (μg/m³),mass concentration of particles derived from Lorenz-Mie calculation of OPC scattering (μg/m³)
DateTimeUTC,F1_M11,P_M11,Q1_M11,Q2_M11,T1_M11,T2_M11,T3_M11,T4_M11,T5_M11,U1_M11,ZSPAN_M11,X0_M11,X2_M11,X1_M11
2023-12-25 22:00:00,SystemResetWarning,0826.5,5.01,000.00,018.8,017.7,000.0,027.3,020.0,11.1,0000.0,0006.93,0004.08,0003.88
2023-12-25 22:01:00,SystemResetWarning,0826.5,5.00,000.00,018.8,017.7,000.0,027.3,020.0,11.0,0000.0,0007.21,0004.15,0003.93
2023-12-25 22:02:00,SystemResetWarning,0826.5,4.98,000.00,018.8,017.7,000.0,027.3,020.0,11.0,0000.0,0007.54,0004.21,0003.99
2023-12-25 22:03:00,SystemResetWarning,0826.5,5.00,000.00,018.8,017.6,000.0,027.3,020.0,10.9,0000.0,0008.06,0004.27,0004.05
2023-12-25 22:04:00,SystemResetWarning,0826.6,5.00,000.00,018.8,017.6,000.0,027.3,020.0,10.8,0000.0,0008.20,0004.33,0004.12
2023-12-25 22:05:00,SystemResetWarning,0826.6,5.01,000.00,018.8,017.6,000.0,027.3,020.0,11.0,0000.0,0008.34,0004.38,0004.16
2023-12-25 22:06:00,SystemResetWarning,0826.6,5.00,000.00,018.8,017.6,000.0,027.3,020.0,11.1,0000.0,0008.36,0004.40,0004.18
2023-12-25 22:07:00,SystemResetWarning,0826.6,5.01,000.00,018.8,017.6,000.0,027.3,020.0,11.0,0000.0,0008.38,0004.42,0004.21
2023-12-25 22:08:00,SystemResetWarning,0826.6,5.00,000.00,018.8,017.6,000.0,027.3,020.0,11.0,0000.0,0008.45,0004.45,0004.23
2023-12-25 22:09:00,SystemResetWarning,0826.6,5.00,000.00,018.8,017.6,000.0,027.3,020.0,10.9,0000.0,0008.52,0004.47,0004.25
2023-12-25 22:10:00,SystemResetWarning,0826.6,5.00,000.00,018.8,017.6,000.0,027.3,020.0,10.9,0000.0,0008.64,0004.51,0004.27
2023-12-25 22:11:00,SystemResetWarning,0826.6,5.00,000.00,018.7,017.5,000.0,027.3,020.0,10.7,0000.0,0008.62,0004.52,0004.29
2023-12-25 22:12:00,SystemResetWarning,0826.6,4.99,000.00,018.7,017.5,000.0,027.3,020.0,10.9,0000.0,0008.43,0004.51,0004.30
2023-12-25 22:13:00,SystemResetWarning,0826.6,4.99,000.00,018.7,017.4,000.0,027.3,020.0,10.9,0000.0,0008.00,0004.51,0004.30
2023-12-25 22:14:00,SystemResetWarning,0826.6,5.00,000.00,018.7,017.4,000.0,027.3,020.0,10.8,0000.0,0007.71,0004.49,0004.28
2023-12-25 22:15:00,SystemResetWarning,0826.6,5.01,000.00,018.7,017.4,000.0,027.3,020.0,11.0,0000.0,0007.18,0004.49,0004.27
2023-12-25 22:16:00,SystemResetWarning,0826.5,5.01,000.00,018.7,017.4,000.0,027.3,020.0,10.8,0000.0,0006.95,0004.48,0004.27
2023-12-25 22:17:00,SystemResetWarning,0826.5,5.00,000.00,018.7,017.4,000.0,027.3,020.0,10.9,0000.0,0007.08,0004.51,0004.29
2023-12-25 22:18:00,SystemResetWarning,0826.5,5.00,000.00,018.7,017.4,000.0,027.3,020.0,11.0,0000.0,0007.54,0004.53,0004.30
2023-12-25 22:19:00,SystemResetWarning,0826.5,4.99,000.00,018.7,017.4,000.0,027.3,020.0,10.5,0000.0,0007.52,0004.53,0004.30
2023-12-25 22:20:00,SystemResetWarning,0826.5,4.99,000.00,018.7,017.4,000.0,027.3,020.0,10.5,0000.0,0007.54,0004.55,0004.30
2023-12-25 22:21:00,SystemResetWarning,0826.4,5.00,000.00,018.7,017.3,000.0,027.3,020.0,10.5,0000.0,0007.47,0004.55,0004.30
2023-12-25 22:22:00,SystemResetWarning,0826.4,5.01,000.00,018.7,017.3,000.0,027.3,020.0,10.6,0000.0,0007.73,0004.56,0004.31
2023-12-25 22:23:00,SystemResetWarning,0826.4,5.00,000.00,018.7,017.3,000.0,027.3,020.0,10.7,0000.0,0008.23,0004.58,0004.33
2023-12-25 22:24:00,SystemResetWarning,0826.4,5.01,000.00,018.7,017.3,000.0,027.3,020.0,10.8,0000.0,0008.45,0004.62,0004.34
2023-12-25 22:25:00,SystemResetWarning,0826.5,4.99,000.00,018.7,017.3,000.0,027.3,020.0,10.7,0000.0,0008.55,0004.63,0004.34
2023-12-25 22:26:00,SystemResetWarning,0826.4,5.00,000.00,018.7,017.2,000.0,027.3,020.0,10.9,0000.0,0008.49,0004.58,0004.31
2023-12-25 22:27:00,SystemResetWarning,0826.5,4.99,000.00,018.7,017.2,000.0,027.3,020.0,10.8,0000.0,0008.50,0004.56,0004.29
2023-12-25 22:28:00,SystemResetWarning,0826.5,5.00,000.00,018.7,017.2,000.0,027.3,020.0,10.8,0000.0,0008.41,0004.51,0004.26
2023-12-25 22:29:00,SystemResetWarning,0826.4,5.00,000.00,018.7,017.2,000.0,027.3,020.0,10.9,0000.0,0007.91,0004.44,0004.22
2023-12-25 22:30:00,SystemResetWarning,0826.4,5.01,000.00,018.7,017.2,000.0,027.3,020.0,11.0,0000.0,0007.91,0004.42,0004.21
2023-12-25 22:31:00,SystemResetWarning,0826.4,5.00,000.00,018.6,017.2,000.0,027.3,020.0,11.0,0000.0,0008.20,0004.40,0004.20
2023-12-25 22:32:00,SystemResetWarning,0826.4,5.00,000.00,018.6,017.2,000.0,027.2,020.0,10.9,0000.0,0008.80,0004.38,0004.18
2023-12-25 22:33:00,SystemResetWarning,0826.4,5.00,000.00,018.6,017.2,000.0,027.2,020.0,10.9,0000.0,0009.07,0004.35,0004.16
2023-12-25 22:34:00,SystemResetWarning,0826.4,5.00,000.00,018.6,017.1,000.0,027.2,020.0,11.0,0000.0,0008.83,0004.35,0004.15
2023-12-25 22:35:00,SystemResetWarning,0826.4,5.00,000.00,018.6,017.1,000.0,027.2,020.0,10.9,0000.0,0008.79,0004.34,0004.15
2023-12-25 22:36:00,SystemResetWarning,0826.4,5.00,000.00,018.6,017.1,000.0,027.2,020.0,10.9,0000.0,0008.77,0004.36,0004.16
2023-12-25 22:37:00,SystemResetWarning,0826.4,4.99,000.00,018.6,017.1,000.0,027.2,020.0,10.8,0000.0,0008.98,0004.41,0004.20
2023-12-25 22:38:00,SystemResetWarning,0826.4,5.00,000.00,018.6,017.1,000.0,027.2,020.0,11.0,0000.0,0009.02,0004.45,0004.23
2023-12-25 22:39:00,SystemResetWarning,0826.4,4.99,000.00,018.6,017.1,000.0,027.2,020.0,11.1,0000.0,0009.29,0004.48,0004.25
2023-12-25 22:40:00,SystemResetWarning,0826.4,4.99,000.00,018.6,017.1,000.0,027.2,020.0,10.8,0000.0,0009.71,0004.53,0004.28
2023-12-25 22:41:00,SystemResetWarning,0826.5,5.00,000.00,018.6,017.0,000.0,027.2,020.0,10.7,0000.0,0009.75,0004.56,0004.30
2023-12-25 22:42:00,SystemResetWarning,0826.6,5.02,000.00,018.6,017.0,000.0,027.2,020.0,10.6,0000.0,0009.62,0004.58,0004.33
2023-12-25 22:43:00,SystemResetWarning,0826.6,5.01,000.00,018.6,017.0,000.0,027.2,020.0,10.6,0000.0,0008.99,0004.63,0004.36
2023-12-25 22:44:00,SystemResetWarning,0826.6,4.99,000.00,018.6,017.2,000.0,027.1,020.1,10.7,0000.0,0008.67,0004.68,0004.39
2023-12-25 22:45:00,SystemResetWarning,0826.6,5.01,000.00,018.7,017.9,000.0,027.1,020.4,10.7,0000.0,0008.24,0004.69,0004.41
2023-12-25 22:46:00,SystemResetWarning,0826.6,4.98,000.00,018.8,018.5,000.0,027.1,020.4,10.7,0000.0,0008.12,0004.68,0004.41
2023-12-25 22:47:00,SystemResetWarning,0826.6,4.99,000.00,018.8,018.4,000.0,027.1,020.0,10.8,0000.0,0008.08,0004.69,0004.43
2023-12-25 22:48:00,SystemResetWarning,0826.6,5.00,000.00,018.7,018.3,000.0,027.1,020.0,10.9,0000.0,0007.91,0004.68,0004.43
2023-12-25 22:49:00,SystemResetWarning,0826.6,5.00,000.00,018.7,018.1,000.0,027.1,020.0,10.8,0000.0,0008.20,0004.72,0004.45
2023-12-25 22:50:00,SystemResetWarning,0826.5,5.00,000.00,018.7,018.0,000.0,027.1,020.0,10.6,0000.0,0008.27,0004.74,0004.45
2023-12-25 22:51:00,SystemResetWarning,0826.5,5.00,000.00,018.7,017.9,000.0,027.2,020.0,10.6,0000.0,0008.46,0004.76,0004.47
2023-12-25 22:52:00,SystemResetWarning,0826.4,5.00,000.00,018.7,017.8,000.0,027.2,020.0,10.5,0000.0,0008.69,0004.77,0004.48
2023-12-25 22:53:00,SystemResetWarning,0826.4,5.00,000.00,018.7,017.7,000.0,027.2,020.0,10.5,0000.0,0008.68,0004.78,0004.48
2023-12-25 22:54:00,SystemResetWarning,0826.5,5.00,000.00,018.7,017.6,000.0,027.2,020.0,10.6,0000.0,0008.63,0004.76,0004.47
2023-12-25 22:55:00,SystemResetWarning,0826.5,5.00,000.00,018.7,017.5,000.0,027.2,020.0,10.4,0000.0,0008.55,0004.73,0004.46
2023-12-25 22:56:00,SystemResetWarning,0826.5,5.01,000.00,018.7,017.4,000.0,027.2,020.0,10.5,0000.0,0008.55,0004.73,0004.46
2023-12-25 22:57:00,SystemResetWarning,0826.5,4.99,000.00,018.6,017.4,000.0,027.2,020.0,10.8,0000.0,0008.59,0004.76,0004.48
2023-12-25 22:58:00,SystemResetWarning,0826.5,5.00,000.00,018.6,017.4,000.0,027.2,020.0,10.9,0000.0,0008.62,0004.77,0004.49
2023-12-25 22:59:00,SystemResetWarning,0826.5,5.00,000.00,018.6,017.4,000.0,027.2,020.0,11.0,0000.0,0008.62,0004.77,0004.48
